EW3013 Weather Reports


Display with metric or nautical units.
time (UTC)temp
F
wind
direction
speed
MPH
gust
MPH
rain 1hr
in
rain 24hr
in
rain mn
in
humidity
%
barometer
mb
20220123152124 32 247 4.0 7.0 0.00 0.00 0.00 57 1013.3
20220123151121 30 247 3.0 5.0 0.00 0.00 0.00 61 1013.5
20220123150122 28 250 3.0 4.0 0.00 0.00 0.00 64 1013.5
20220123145124 27 258 2.0 4.0 0.00 0.00 0.00 65 1013.7
20220123144121 27 255 3.0 5.0 0.00 0.00 0.00 65 1013.7
20220123143122 26 257 2.0 5.0 0.00 0.00 0.00 65 1013.7
20220123142125 26 231 0.0 3.0 0.00 0.00 0.00 65 1013.7
20220123141121 26 203 0.0 0.0 0.00 0.00 0.00 65 1013.7
20220123140122 26 262 0.0 2.0 0.00 0.00 0.00 65 1013.8
20220123135124 25 253 1.0 3.0 0.00 0.00 0.00 65 1014.0
20220123134122 25 260 1.0 3.0 0.00 0.00 0.00 66 1014.4
20220123133122 24 253 1.0 3.0 0.00 0.00 0.00 68 1014.4
20220123132124 23 270 0.0 2.0 0.00 0.00 0.00 70 1014.4
20220123131122 22 270 0.0 0.0 0.00 0.00 0.00 71 1014.6
20220123130121 21 225 0.0 0.0 0.00 0.00 0.00 69 1014.6
20220123125125 20 253 0.0 2.0 0.00 0.00 0.00 71 1015.1
20220123124121 20 249 2.0 3.0 0.00 0.00 0.00 72 1015.0
20220123123121 20 248 0.0 0.0 0.00 0.00 0.00 73 1015.0
20220123122124 20 203 0.0 0.0 0.00 0.00 0.00 69 1015.2
20220123121121 20 246 0.0 2.0 0.00 0.00 0.00 67 1015.3
20220123120121 20 264 0.0 2.0 0.00 0.00 0.00 65 1015.3
20220123115124 20 186 0.0 2.0 0.00 0.00 0.00 66 1015.4
20220123114122 19 224 0.0 3.0 0.00 0.00 0.00 65 1015.2
20220123113123 19 237 1.0 3.0 0.00 0.00 0.00 66 1015.2
20220123112124 18 245 1.0 3.0 0.00 0.00 0.00 67 1015.4
20220123111121 17 246 0.0 3.0 0.00 0.00 0.00 70 1015.3
20220123110122 17 214 0.0 1.0 0.00 0.00 0.00 69 1015.3
20220123105125 17 199 0.0 2.0 0.00 0.00 0.00 69 1015.4
20220123104121 17 243 0.0 2.0 0.00 0.00 0.00 71 1015.2
20220123103121 16 214 0.0 2.0 0.00 0.00 0.00 74 1015.2
20220123102124 16 239 1.0 2.0 0.00 0.00 0.00 77 1015.2
20220123101121 16 203 0.0 0.0 0.00 0.00 0.00 80 1015.2
20220123100121 16 248 0.0 0.0 0.00 0.00 0.00 80 1015.2
20220123095124 16 225 0.0 0.0 0.00 0.00 0.00 80 1015.5
20220123094121 16 248 0.0 0.0 0.00 0.00 0.00 77 1015.8
20220123093122 17 201 0.0 2.0 0.00 0.00 0.00 72 1015.8
20220123092123 16 213 0.0 2.0 0.00 0.00 0.00 74 1015.9
20220123091121 16 180 0.0 0.0 0.00 0.00 0.00 78 1016.0
20220123090121 16 225 0.0 0.0 0.00 0.00 0.00 79 1016.0
20220123085124 16 225 0.0 0.0 0.00 0.00 0.00 79 1016.1
20220123084121 16 225 0.0 0.0 0.00 0.00 0.00 78 1016.3
20220123083122 16 248 0.0 0.0 0.00 0.00 0.00 78 1016.3
20220123082124 16 203 0.0 0.0 0.00 0.00 0.00 75 1016.4
20220123081121 16 225 0.0 0.0 0.00 0.00 0.00 74 1016.6
20220123080121 17 203 0.0 0.0 0.00 0.00 0.00 72 1016.8
20220123075123 17 225 0.0 0.0 0.00 0.00 0.00 71 1016.8
20220123074122 17 203 0.0 0.0 0.00 0.00 0.00 73 1017.0
20220123073121 16 180 0.0 0.0 0.00 0.00 0.00 76 1017.0
20220123072124 17 203 0.0 0.0 0.00 0.00 0.00 76 1017.1
20220123071122 16 202 0.0 2.0 0.00 0.00 0.00 76 1017.1
20220123070121 17 203 0.0 0.0 0.00 0.00 0.00 77 1017.0
20220123065125 17 203 0.0 0.0 0.00 0.00 0.00 76 1017.1
20220123064121 17 203 0.0 0.0 0.00 0.00 0.00 74 1017.4
20220123063122 17 203 0.0 0.0 0.00 0.00 0.00 73 1017.4
20220123062125 18 225 0.0 0.0 0.00 0.00 0.00 72 1017.4
20220123061122 18 230 0.0 2.0 0.00 0.00 0.00 69 1017.6
20220123060121 19 208 0.0 2.0 0.00 0.00 0.00 69 1017.8
20220123055122 19 229 0.0 2.0 0.00 0.00 0.00 70 1017.9
20220123054125 19 203 0.0 0.0 0.00 0.00 0.00 71 1018.2
20220123053123 19 225 0.0 0.0 0.00 0.00 0.00 72 1018.2
20220123052122 18 248 0.0 0.0 0.00 0.00 0.00 74 1018.4
20220123051126 18 225 0.0 0.0 0.00 0.00 0.00 76 1018.5
20220123050122 17 225 0.0 0.0 0.00 0.00 0.00 77 1018.5
20220123045122 16 248 0.0 0.0 0.00 0.00 0.00 78 1018.5
20220123044120 16 180 0.0 0.0 0.00 0.00 0.00 75 1018.7
20220123043120 16 193 0.0 2.0 0.00 0.00 0.00 73 1018.7
20220123042121 16 203 0.0 0.0 0.00 0.00 0.00 72 1018.8
20220123041122 16 203 0.0 0.0 0.00 0.00 0.00 70 1018.8
20220123040120 17 180 0.0 0.0 0.00 0.00 0.00 69 1019.1
20220123035120 17 225 0.0 0.0 0.00 0.00 0.00 68 1019.1
20220123034121 17 203 0.0 0.0 0.00 0.00 0.00 65 1019.0
20220123033120 18 180 0.0 0.0 0.00 0.00 0.00 66 1019.0
20220123032121 18 203 0.0 0.0 0.00 0.00 0.00 65 1018.9
20220123031121 18 225 0.0 0.0 0.00 0.00 0.00 63 1019.1
20220123030120 19 180 0.0 0.0 0.00 0.00 0.00 64 1019.2
20220123025121 19 203 0.0 0.0 0.00 0.00 0.00 66 1019.5
20220123024121 20 203 0.0 0.0 0.00 0.00 0.00 67 1019.8
20220123023121 19 180 0.0 0.0 0.00 0.00 0.00 66 1019.8
20220123022121 19 203 0.0 0.0 0.00 0.00 0.00 66 1020.2
20220123021121 19 203 0.0 0.0 0.00 0.00 0.00 66 1020.1
20220123020121 20 203 0.0 0.0 0.00 0.00 0.00 66 1020.3
20220123015121 19 248 0.0 0.0 0.00 0.00 0.00 66 1020.4
20220123014121 19 225 0.0 0.0 0.00 0.00 0.00 68 1020.4
20220123013121 19 203 0.0 0.0 0.00 0.00 0.00 69 1020.4
20220123012121 19 190 1.0 2.0 0.00 0.00 0.00 65 1020.5
20220123011121 18 248 0.0 0.0 0.00 0.00 0.00 68 1020.8
20220123010121 18 248 0.0 0.0 0.00 0.00 0.00 62 1020.8
20220123005121 18 203 0.0 0.0 0.00 0.00 0.00 63 1021.2
20220123004121 18 180 0.0 0.0 0.00 0.00 0.00 64 1021.4
20220123003121 18 225 0.0 0.0 0.00 0.00 0.00 63 1021.4
20220123002122 19 203 0.0 0.0 0.00 0.00 0.00 60 1021.4
20220123001122 19 180 0.0 0.0 0.00 0.00 0.00 60 1021.6
20220123000121 18 180 0.0 0.0 0.00 0.00 0.00 61 1021.6
20220122235122 19 225 0.0 0.0 0.00 0.00 0.00 56 1021.6
20220122234121 20 180 0.0 0.0 0.00 0.00 0.00 55 1021.6
20220122233122 20 180 0.0 0.0 0.00 0.00 0.00 53 1021.6
20220122232123 20 203 0.0 0.0 0.00 0.00 0.00 53 1021.7
20220122231121 20 225 0.0 0.0 0.00 0.00 0.00 52 1021.7
20220122230121 21 203 0.0 0.0 0.00 0.00 0.00 53 1021.6
20220122225121 21 203 0.0 0.0 0.00 0.00 0.00 50 1021.5
20220122224122 22 180 0.0 2.0 0.00 0.00 0.00 48 1021.5
20220122223121 23 208 1.0 3.0 0.00 0.00 0.00 46 1021.5
20220122222121 24 252 2.0 3.0 0.00 0.00 0.00 40 1021.7
20220122221121 24 254 1.0 3.0 0.00 0.00 0.00 38 1021.9
20220122220122 24 262 2.0 4.0 0.00 0.00 0.00 38 1022.4
20220122215122 25 263 2.0 4.0 0.00 0.00 0.00 36 1022.2
20220122214121 26 258 2.0 4.0 0.00 0.00 0.00 34 1022.4
20220122213121 26 257 3.0 5.0 0.00 0.00 0.00 34 1022.4
20220122212121 26 255 3.0 5.0 0.00 0.00 0.00 36 1022.4
20220122211122 27 264 3.0 4.0 0.00 0.00 0.00 36 1022.5
20220122210121 29 274 2.0 4.0 0.00 0.00 0.00 34 1022.6
20220122205122 29 275 2.0 5.0 0.00 0.00 0.00 36 1022.9
20220122204122 30 256 3.0 5.0 0.00 0.00 0.00 33 1023.0
20220122203121 31 267 3.0 5.0 0.00 0.00 0.00 33 1023.0
20220122202121 31 269 3.0 5.0 0.00 0.00 0.00 33 1023.3
20220122201121 31 227 2.0 4.0 0.00 0.00 0.00 35 1023.6
20220122200121 31 263 2.0 5.0 0.00 0.00 0.00 34 1023.6
20220122195124 31 278 3.0 5.0 0.00 0.00 0.00 34 1023.6
20220122194121 31 272 2.0 6.0 0.00 0.00 0.00 35 1023.9
20220122193121 31 262 3.0 5.0 0.00 0.00 0.00 36 1023.9
20220122192124 31 282 3.0 5.0 0.00 0.00 0.00 36 1024.1
20220122191122 30 285 2.0 5.0 0.00 0.00 0.00 36 1024.5
20220122190121 31 275 2.0 5.0 0.00 0.00 0.00 35 1024.3
20220122185121 30 245 3.0 6.0 0.00 0.00 0.00 37 1024.6
20220122184124 30 266 4.0 7.0 0.00 0.00 0.00 35 1024.9
20220122183121 30 298 3.0 6.0 0.00 0.00 0.00 37 1024.9
20220122182121 30 293 3.0 4.0 0.00 0.00 0.00 35 1025.1
20220122181124 30 255 2.0 5.0 0.00 0.00 0.00 37 1025.4
20220122180122 30 204 1.0 5.0 0.00 0.00 0.00 36 1025.6
20220122175121 28 179 2.0 3.0 0.00 0.00 0.00 35 1025.8
20220122174125 27 157 2.0 3.0 0.00 0.00 0.00 39 1026.2
20220122173121 28 140 2.0 4.0 0.00 0.00 0.00 42 1026.2
20220122172121 27 117 2.0 3.0 0.00 0.00 0.00 41 1026.6
20220122171124 26 89 2.0 3.0 0.00 0.00 0.00 42 1026.9
20220122170121 27 146 3.0 6.0 0.00 0.00 0.00 42 1027.1
20220122165123 25 181 3.0 5.0 0.00 0.00 0.00 45 1027.3
20220122164124 24 166 3.0 5.0 0.00 0.00 0.00 45 1027.7
20220122163121 24 56 4.0 7.0 0.00 0.00 0.00 45 1027.7
20220122162122 24 116 3.0 5.0 0.00 0.00 0.00 44 1027.9
20220122161125 24 89 3.0 5.0 0.00 0.00 0.00 44 1028.5
20220122160121 24 111 2.0 4.0 0.00 0.00 0.00 43 1029.2
20220122155123 23 77 3.0 5.0 0.00 0.00 0.00 46 1029.2
20220122154125 22 62 3.0 5.0 0.00 0.00 0.00 44 1029.6
20220122153123 21 58 3.0 6.0 0.00 0.00 0.00 45 1029.6